CAL95 RKSI-RKPK

Flight info

Callsign CAL95
Flight time N/A
Altitude 21000
Route RKSI/33L OSPOT2E OSPOT Y782 TGU Z83 MASTA
Aircraft A380/J-SDE1E2E3FGHIJ1J3J4J7M3P2RWYZ/LB1D1

Departure

Time N/A
Airport Incheon International Airport (RKSI)

Arrival

Time 2026-04-27 13:34
Airport Gimhae International Airport (RKPK)
Time Latitude Longitude Altitude Speed Heading
2026-04-27 13:05 36.33395 127.81557 25381 ft 533 kts 159°
2026-04-27 13:05 36.30185 127.83825 25145 ft 530 kts 159°
2026-04-27 13:05 36.26984 127.86084 24902 ft 528 kts 159°
2026-04-27 13:06 36.23832 127.88306 24676 ft 527 kts 159°
2026-04-27 13:06 36.20650 127.90546 24446 ft 524 kts 159°
2026-04-27 13:06 36.17489 127.92768 24212 ft 522 kts 159°
2026-04-27 13:06 36.14338 127.94979 23947 ft 520 kts 158°
2026-04-27 13:07 36.11195 127.97182 23708 ft 518 kts 158°
2026-04-27 13:07 36.08070 127.99368 23482 ft 515 kts 158°
2026-04-27 13:07 36.04953 128.01547 23207 ft 512 kts 158°
2026-04-27 13:07 36.01861 128.03709 22940 ft 509 kts 158°
2026-04-27 13:08 35.98786 128.05859 22684 ft 505 kts 158°
2026-04-27 13:08 35.95733 128.07990 22409 ft 502 kts 158°
2026-04-27 13:08 35.92692 128.10111 22140 ft 500 kts 158°
2026-04-27 13:08 35.89672 128.12216 21881 ft 496 kts 158°
2026-04-27 13:09 35.86683 128.14296 21597 ft 491 kts 157°
2026-04-27 13:09 35.83703 128.16365 21337 ft 490 kts 157°
2026-04-27 13:09 35.80742 128.18419 21086 ft 487 kts 157°
2026-04-27 13:09 35.77842 128.20431 20838 ft 483 kts 157°
2026-04-27 13:10 35.74924 128.22456 20582 ft 480 kts 157°
2026-04-27 13:10 35.72020 128.24468 20329 ft 477 kts 157°
2026-04-27 13:10 35.69784 128.26017 20145 ft 476 kts 157°
2026-04-27 13:15 35.43503 128.39728 20136 ft 0 kts 157°
2026-04-27 13:23 35.42501 128.40257 19232 ft 473 kts 167°
2026-04-27 13:23 35.39382 128.41817 18466 ft 476 kts 165°
2026-04-27 13:24 35.36382 128.43315 17995 ft 458 kts 164°
2026-04-27 13:24 35.33527 128.44918 17245 ft 454 kts 158°
2026-04-27 13:24 35.30802 128.46842 16485 ft 450 kts 153°
2026-04-27 13:24 35.28203 128.48951 15753 ft 444 kts 150°
2026-04-27 13:25 35.25692 128.51124 14989 ft 439 kts 149°
2026-04-27 13:25 35.23239 128.53298 14251 ft 433 kts 149°
2026-04-27 13:25 35.20824 128.55448 13560 ft 425 kts 149°
2026-04-27 13:25 35.18455 128.57546 12697 ft 419 kts 149°
2026-04-27 13:26 35.16102 128.59618 11897 ft 413 kts 149°
2026-04-27 13:26 35.13811 128.61624 11139 ft 407 kts 149°
2026-04-27 13:26 35.11508 128.63630 10405 ft 401 kts 149°
2026-04-27 13:26 35.09249 128.65586 9592 ft 396 kts 149°
2026-04-27 13:27 35.07008 128.67525 8761 ft 391 kts 149°
2026-04-27 13:27 35.04801 128.69432 7958 ft 387 kts 149°
2026-04-27 13:27 35.02652 128.71387 7124 ft 385 kts 141°
2026-04-27 13:27 35.00905 128.73867 6385 ft 385 kts 127°
2026-04-27 13:28 34.99593 128.76659 5654 ft 382 kts 117°
2026-04-27 13:28 34.98499 128.79518 5396 ft 362 kts 117°
2026-04-27 13:28 34.97461 128.82276 5207 ft 344 kts 114°
2026-04-27 13:28 34.96753 128.84992 5030 ft 330 kts 101°
2026-04-27 13:29 34.96686 128.87721 4890 ft 316 kts 83°
2026-04-27 13:29 34.96996 128.90311 4769 ft 302 kts 81°
2026-04-27 13:29 34.97409 128.92724 4629 ft 288 kts 69°
2026-04-27 13:29 34.98483 128.94653 4476 ft 265 kts 36°
2026-04-27 13:30 35.00064 128.95529 4313 ft 238 kts
2026-04-27 13:30 35.01584 128.95696 4151 ft 199 kts 354°
2026-04-27 13:30 35.02856 128.95632 3794 ft 174 kts 349°
2026-04-27 13:30 35.04081 128.95483 2936 ft 183 kts 347°
2026-04-27 13:31 35.05367 128.95315 2415 ft 189 kts 348°
2026-04-27 13:31 35.06671 128.95147 2006 ft 190 kts 349°
2026-04-27 13:31 35.07910 128.94995 1725 ft 167 kts 348°
2026-04-27 13:31 35.09035 128.94850 1508 ft 159 kts 348°
2026-04-27 13:32 35.10131 128.94706 1295 ft 157 kts 349°
2026-04-27 13:32 35.11218 128.94567 1086 ft 156 kts 349°
2026-04-27 13:32 35.12299 128.94426 879 ft 155 kts 351°
2026-04-27 13:32 35.13361 128.94285 673 ft 153 kts 352°
2026-04-27 13:33 35.14408 128.94148 470 ft 153 kts 352°
2026-04-27 13:33 35.15468 128.94013 272 ft 152 kts 353°
2026-04-27 13:33 35.16530 128.93875 62 ft 155 kts 353°
2026-04-27 13:33 35.17529 128.93745 32 ft 126 kts 354°
2026-04-27 13:34 35.18174 128.93633 18 ft 52 kts 349°
2026-04-27 13:34 35.18282 128.93640 16 ft 6 kts 13°
2026-04-27 13:34 35.18518 128.93766 19 ft 44 kts 15°
2026-04-27 13:34 35.18641 128.93928 21 ft 7 kts 133°
2026-04-27 13:35 35.18640 128.93929 20 ft 0 kts 131°
2026-04-27 13:36 37.47237 126.45582 20 ft 0 kts 326°